This is the latest recevied weather packets stored in our database for station/object WK1F-2. If no packets are shown the sender has not sent any weather packets the latest 10 day(s).
| Time | Temp. | Humidity | Pressure | Rain* | Wind** | Luminosity | Snow |
|---|---|---|---|---|---|---|---|
| 1777900520 | 18.33° C | 85% | 1018 hPa | 0 mm | - | - | - |
| 1777900401 | 18.33° C | 86% | 1018 hPa | 0 mm | - | - | - |
| 1777900340 | 17.78° C | 86% | 1018 hPa | 0 mm | - | - | - |
| 1777900280 | 17.78° C | 83% | 1018 hPa | 0 mm | - | - | - |
| 1777900220 | 17.78° C | 85% | 1018 hPa | 0 mm | - | - | - |
| 1777900127 | 17.78° C | 89% | 1018.1 hPa | 0 mm | - | - | - |
| 1777899833 | 17.22° C | 94% | 1018.1 hPa | 0 mm | - | - | - |
| 1777899533 | 17.22° C | 98% | 1018.1 hPa | 0 mm | - | - | - |
| 1777899233 | 17.22° C | 98% | 1018.1 hPa | 0 mm | - | - | - |
| 1777898933 | 16.67° C | 98% | 1018 hPa | 0 mm | - | - | - |
| 1777898633 | 16.67° C | 98% | 1017.9 hPa | 0 mm | - | - | - |
| 1777898333 | 16.11° C | 98% | 1018 hPa | 0 mm | - | - | - |
| 1777898033 | 16.11° C | 98% | 1018 hPa | 0 mm | - | - | - |
| 1777897733 | 15.56° C | 98% | 1017.9 hPa | 0 mm | - | - | - |
| 1777897433 | 15° C | 98% | 1017.9 hPa | 0 mm | - | - | - |
| 1777897133 | 14.44° C | 98% | 1018 hPa | 0 mm | - | - | - |
| 1777896893 | 13.89° C | 98% | 1018 hPa | 0 mm | - | - | - |
| 1777896653 | 13.33° C | 98% | 1018 hPa | 0 mm | - | - | - |
| 1777896413 | 12.78° C | 98% | 1018 hPa | 0 mm | - | - | - |
| 1777896173 | 12.78° C | 98% | 1018 hPa | 0 mm | - | - | - |
| 1777895933 | 12.22° C | 98% | 1018 hPa | 0 mm | - | - | - |
| 1777895813 | 12.22° C | 98% | 1018 hPa | 0 mm | - | - | - |
| 1777895693 | 12.22° C | 98% | 1017.9 hPa | 0 mm | - | - | - |
| 1777895573 | 12.22° C | 98% | 1018 hPa | 0 mm | - | - | - |
| 1777895513 | 12.22° C | 98% | 1018 hPa | 0 mm | - | - | - |
* Rain latest hour (hover to see other rain measurements)
** Current wind speed in m/s (hover to see current wind gust speed)